Regional Weather Roundup
Issued by NWS

Home | Current Version | Previous Version | Text Only | Print | Product List | Glossary On
Versions: 1 2 3 4 5 6 7 8 9 10 11 12 13 14 15 16 17 18 19 20 21 22 23 24 25 26 27 28 29 30 31 32 33 34 35 36 37 38 39 40 41 42 43 44 45 46 47 48 49 50
000
ASUS44 KMEG 212210
RWRTN
TENNESSEE HOURLY STATE WEATHER ROUNDUP
NATIONAL WEATHER SERVICE MEMPHIS TN
500 PM CDT FRI JUL 21 2017

TNZ002-004-019-021-049-052-054-088>092-212300-
WEST TENNESSEE

CITY           SKY/WX    TMP DP  RH WIND       PRES   REMARKS
MEMPHIS INTL   PTSUNNY   97  74  47 VRB7      29.96F HX 108
NWS MEMPHIS      N/A     93 N/A N/A MISG        N/A
JACKSON        MOSUNNY   97  74  47 SW7       29.96F HX 108
SOMERVILLE       N/A     95  72  46 SW5       29.96S HX 103
COVINGTON      SUNNY     93  75  55 S6        29.95F HX 104
UNION CITY     SUNNY     93  79  62 SW5       29.94F HX 110
BOLIVAR        MOSUNNY   97  70  41 SE3       29.95F HX 103
PARIS          SUNNY     93  77  59 SW7       29.96F HX 107
HUNTINGDON     SUNNY     93  75  55 SW6       29.95F HX 104
LEXINGTON      SUNNY     93  75  55 SW3       29.96F HX 104
SELMER         SUNNY     93  72  49 CALM      29.97S HX 100
SAVANNAH       SUNNY     95  72  46 CALM      29.96S HX 103
$$

TNZ008-025-027-028-033-062-065-066-212300-
NORTH MIDDLE TENNESSEE

CITY           SKY/WX    TMP DP  RH WIND       PRES   REMARKS
NASHVILLE      PTSUNNY   95  68  41 VRB3      29.98F HX  99
PORTLAND       SUNNY     93  73  52 CALM      29.98S HX 102
CLARKSVILLE    SUNNY     92  73  53 SW7       29.97F HX 100
SMYRNA         PTSUNNY   96  75  50 NE6       29.98F HX 108
COOKEVILLE     SUNNY     91  72  52 CALM      30.01S HX  98
GALLATIN       SUNNY     95  72  46 VRB6      29.99F HX 103
CROSSVILLE     SUNNY     89  67  47 W3        30.07S HX  92
$$

TNZ061-075-076-078-094-096-097-212300-
SOUTH MIDDLE TENNESSEE

CITY           SKY/WX    TMP DP  RH WIND       PRES   REMARKS
FAYETTEVILLE   SUNNY     91  72  52 NW3       30.00S HX  98
TULLAHOMA        N/A     91  68  46 W5        30.03S HX  95
WINCHESTER     MOSUNNY   91  73  55 NW3       30.01S HX 100
MCMINNVILLE    SUNNY     93  73  52 CALM      30.02S HX 102
COLUMBIA       SUNNY     93  72  49 CALM      29.96F HX 100
SHELBYVILLE    SUNNY     91  72  52 CALM      29.99F HX  98
$$

TNZ017-018-042-046-047-212300-
NORTHEAST TENNESSEE

CITY           SKY/WX    TMP DP  RH WIND       PRES   REMARKS
TRI CITIES     MOSUNNY   89  69  51 S7        30.03F HX  93
ELIZABETHTON   SUNNY     90  68  48 W5        30.04F HX  93
$$

TNZ012-013-036-069-073-074-212300-
CENTRAL EAST TENNESSEE

CITY           SKY/WX    TMP DP  RH WIND       PRES   REMARKS
KNOXVILLE      PTSUNNY   94  64  37 E6        29.98F HX  95
OAK RIDGE      MOSUNNY   94  69  44 N3        30.01F HX  99
GATLINBURG     SUNNY     93  63  36 CALM      29.98F HX  94
MORRISTOWN     SUNNY     91  68  46 N8        30.01S HX  95
JACKSBORO      SUNNY     91  73  55 CALM      30.05S HX 100
$$

TNZ083-085-099-212300-
SOUTHEAST TENNESSEE

CITY           SKY/WX    TMP DP  RH WIND       PRES   REMARKS
CHATTANOOGA    MOSUNNY   96  62  32 NW9       29.98F HX  97
DAYTON         CLEAR     93  72  49 CALM      29.98S HX 100
$$

SKY/WX REPORTED AS FAIR MEANS FEW OR NO CLOUDS BELOW
12 THOUSAND FEET.




USA.gov is the U.S. government's official web portal to all federal, state and local government web resources and services.